Home   Weather   Fairfield Beach   Past weeks
Flag for USA

Past Weather in Fairfield Beach, Connecticut, USA — Yesterday and Last 2 Weeks

Now
48 °F

Light rain. Fog.


Feels Like: 43 °F
Forecast: 52 / 46 °F
Wind: 12 mph from Northeast

Location: Sikorsky Memorial Airport

Current Time: Dec 14, 2019 at 9:19:26 am

Latest Report: Dec 14, 2019 at 8:34 am


Visibility: 1 mi

Pressure: 29.47 "Hg

Humidity: 93%

Dew Point: 46 °F

Location of Fairfield BeachLocation

Past Weather in Fairfield Beach — Graph

°F

Fairfield Beach Temperature Yesterday

Maximum temperature yesterday: 50 °F (at 11:52 pm)
Minimum temperature yesterday: 29 °F (at 2:52 am)
Average temperature yesterday: 40 °F

High & Low Weather Summary for the Past Weeks

 TemperatureHumidityPressure
High55 °F (Dec 9, 10:52 am)100% (Dec 9, 2:17 pm)30.74 "Hg (Dec 9, 2:17 pm)
Low20 °F (Dec 8, 6:52 am)22% (Nov 30, 1:52 pm)29.42 "Hg (Dec 3, 12:52 pm)
Average38 °F73%29.99 "Hg
* Reported Nov 29 7:52 am — Dec 14 7:59 am, Fairfield Beach. Weather by CustomWeather, © 2019

Note: Actual official high and low records may vary slightly from our data, if they occured in-between our weather recording intervals... More about our weather records

Fairfield Beach Weather History for the Previous 24 Hours

Scroll right to see more
 ConditionsComfort  
Time TempWeatherWind HumidityBarometerVisibility
7:59 am
Sat, Dec 14
49 °FLight rain. Fog.7 mph97%29.50 "Hg1 mi
7:09 am49 °FLight rain. Fog.12 mph93%29.51 "Hg2 mi
6:52 am48 °FLight rain. Fog.6 mph96%29.52 "Hg4 mi
6:37 am48 °FHeavy rain. Fog.12 mph93%29.53 "Hg3 mi
6:20 am48 °FRain. Fog.12 mph93%29.54 "Hg3 mi
6:09 am48 °FRain. Fog.15 mph93%29.54 "Hg2 mi
5:37 am49 °FRain. Fog.13 mph93%29.57 "Hg2 mi
5:02 am49 °FHeavy rain. Fog.6 mph97%29.59 "Hg3 mi
3:52 am50 °FRain. Fog.13 mph93%29.64 "Hg6 mi
3:11 am49 °FRain. Fog.9 mph97%29.68 "Hg3 mi
3:01 am50 °FRain. Fog.13 mph93%29.69 "Hg2 mi
2:28 am50 °FRain. Fog.16 mph93%29.73 "Hg4 mi
2:16 am50 °FHeavy rain. Fog.16 mph93%29.75 "Hg2 mi
2:06 am50 °FHeavy rain. Fog.17 mph93%29.76 "Hg2 mi
1:29 am49 °FHeavy rain. Fog.16 mph93%29.81 "Hg2 mi
12:52 am49 °FRain. Fog.18 mph93%29.85 "Hg6 mi
12:11 am49 °FRain. Fog.21 mph97%29.91 "Hg3 mi
12:03 am49 °FHeavy rain. Fog.21 mph97%29.92 "Hg2 mi
11:52 pm
Fri, Dec 13
50 °FLight rain. Fog.20 mph93%29.93 "Hg5 mi
10:52 pm49 °FRain. Fog.17 mph93%29.99 "Hg3 mi
10:33 pm48 °FHeavy rain. Fog.20 mph96%30.01 "Hg2 mi
10:14 pm47 °FRain. Fog.16 mph97%30.03 "Hg3 mi
9:59 pm46 °FLight rain. Fog.16 mph96%30.04 "Hg4 mi
8:52 pm45 °FLight rain. Fog.14 mph93%30.09 "Hg4 mi
8:18 pm44 °FLight rain. Fog.13 mph96%30.12 "Hg4 mi
7:52 pm43 °FLight rain. Fog.13 mph97%30.14 "Hg2 mi
6:52 pm43 °FLight rain. Fog.12 mph93%30.17 "Hg4 mi
5:52 pm43 °FLight rain. Fog.12 mph93%30.20 "Hg5 mi
4:59 pm43 °FRain. Fog.13 mph93%30.22 "Hg5 mi
4:00 pm42 °FLight rain. Fog.9 mph92%30.24 "Hg2 mi
3:30 pm42 °FLight rain. Fog.7 mph89%30.26 "Hg3 mi
3:23 pm42 °FLight rain. Fog.8 mph89%30.26 "Hg2 mi
3:06 pm42 °FLight rain. Fog.8 mph85%30.26 "Hg3 mi
2:52 pm41 °FFog.9 mph89%30.27 "Hg6 mi
1:52 pm40 °FOvercast.7 mph89%30.29 "Hg10 mi
12:52 pm39 °FOvercast.7 mph86%30.33 "Hg10 mi
12:06 pm40 °FOvercast.8 mph83%30.35 "Hg4 mi
11:59 am39 °FLight rain. Fog.9 mph86%30.36 "Hg2 mi
10:52 am40 °FOvercast.6 mph77%30.40 "Hg10 mi
9:52 am38 °FOvercast.6 mph76%30.44 "Hg10 mi
9:28 am36 °FMostly cloudy.6 mph79%30.45 "Hg10 mi
Weather by CustomWeather, © 2019

See weather overview

Advertising